Terminal Aerodrome Forecast
Issued by NWS

Home | Current Version | Previous Version | Text Only | Print | Product List | Glossary On
Versions: 1 2 3 4 5 6 7 8 9 10 11 12 13 14 15 16 17 18
000
FTUS43 KEAX 221100
TAFSTJ
TAF
KSTJ 221133Z 2212/2312 13008KT P6SM VCSH OVC040
     FM221700 15007KT P6SM SCT030
     FM230400 17005KT 5SM -RA BKN035=

USA.gov is the U.S. government's official web portal to all federal, state and local government web resources and services.